Location: Bieg
(49.3499°N, 10.3835°E)
Time: 11:34:14
(UTC+00:00)

Cosmos 2181 Rocket - Pass Details

Date: 23 May 2024
Orbit: 951 x 1015 km, 82.9° (Epoch: 24 June)

Event Time Altitude Azimuth Distance (km) Brightness Sun altitude
Rises 01:48:28 0° 350° (N) 3,747 7.7 -12.2°
Reaches altitude 10° 01:51:01 10° 350° (N) 2,785 7.0 -11.9°
Maximum altitude 01:57:26 85° 264° (W) 1,001 4.0 -11.3°
Drops below altitude 10° 02:03:42 10° 175° (S) 2,723 5.9 -10.6°
Enters shadow 02:05:55 - 175° (S) 3,560 6.5 -10.4°
